User: anonymous   Login
Location: Spruce Knob
(38.6995°N, 79.5330°W)
Time: 19:36:13
(UTC-04:00)
Language:

Max Valier Satellite - Orbit

View from above orbital plane
View from above orbital plane
View from above satellite
View from above satellite

Ground track
Ground track

The orbit data is extracted from the following two-line orbital elements,

1 42778U 17036P   24103.59399360  .00091378  00000-0  88812-3 0  9997
2 42778  97.1105 140.2269 0006598 102.5567 257.6432 15.65989737379245
Epoch (UTC): 12 April 2024 14:15:21
Eccentricity: 0.0006598
inclination: 97.1105°
perigee height: 366 km
apogee height: 375 km
right ascension of ascending node: 140.2269°
argument of perigee: 102.5567°
revolutions per day: 15.65989737
mean anomaly at epoch: 257.6432°
orbit number at epoch: 37924

The dashed part of the orbit path shows where the satellite is in the earth's shadow,  

DLR